Ardmore, OK

3:10 PM CST on November 24, 2017 (GMT -0600)
Ardmore Municipal

Weather History for KADM - January, 2014

Change the Weather History Date:

Saturday, January 25, 2014

  Actual Average Record
Temperature  
Mean Temperature 45 °F -  
Max Temperature 69 °F 51 °F 77 °F (2005)
Min Temperature 21 °F 32 °F 21 °F (2014)
Degree Days  
Heating Degree Days 20    
Moisture  
Dew Point 22 °F    
Average Humidity 63    
Maximum Humidity 91    
Minimum Humidity 28    
Precipitation  
Precipitation 0.00 in - - ()
Sea Level Pressure  
Sea Level Pressure 30.08 in    
Wind  
Wind Speed 1 mph (NNW)    
Max Wind Speed 14 mph    
Max Gust Speed -    
Visibility 10 miles    
Events      
Averages and records for this station are not official NWS values.
T = Trace of Precipitation, MM = Missing Value Source: NWS Daily Summary

Daily Weather History Graph

Daily Weather History Graph

Search for Another Location

Airport or City:

Trip Planner

Search our weather history database for the weather conditions in past years. The results will help you decide how hot, cold, wet, or windy it might be!

Date:

Astronomy

Jan. 25, 2014 Rise Set
Actual Time 7:30 AM CST 5:51 PM CST
Civil Twilight 7:03 AM CST 6:17 PM CST
Nautical Twilight 6:32 AM CST 6:48 PM CST
Astronomical Twilight 6:03 AM CST 7:18 PM CST
Moon 2:04 AM CST (1/25) 12:52 PM CST (1/25)
Length of Visible Light 11h 14m
Length of Day
10h 21m
Waning Crescent, 34% of the Moon is Illuminated
Jan 25
Waning Crescent
Jan 30
New
Feb 6
First Quarter
Feb 14
Full
Feb 22
Last Quarter

Hourly Weather History & Observations

Time (CST) Temp. Windchill Dew Point Humidity Pressure Visibility Wind Dir Wind Speed Gust Speed Precip Events Conditions
12:15 AM 27.9 °F - 11.8 °F 51% 30.16 in 10.0 mi Calm Calm - N/A   Clear
12:35 AM 27.1 °F - 14.0 °F 58% 30.15 in 10.0 mi Calm Calm - N/A   Clear
12:55 AM 29.8 °F - 10.9 °F 45% 30.14 in 10.0 mi Calm Calm - N/A   Clear
1:15 AM 27.0 °F - 13.1 °F 56% 30.14 in 10.0 mi Calm Calm - N/A   Clear
1:35 AM 26.1 °F - 14.5 °F 62% 30.13 in 10.0 mi Calm Calm - N/A   Clear
1:55 AM 25.7 °F - 14.0 °F 61% 30.12 in 10.0 mi Calm Calm - N/A   Clear
2:15 AM 24.3 °F - 15.3 °F 69% 30.11 in 10.0 mi Calm Calm - N/A   Clear
2:35 AM 22.6 °F - 15.8 °F 75% 30.11 in 10.0 mi Calm Calm - N/A   Clear
2:55 AM 24.6 °F - 15.3 °F 68% 30.11 in 10.0 mi Calm Calm - N/A   Clear
3:15 AM 24.1 °F 19.7 °F 15.6 °F 70% 30.10 in 10.0 mi East 3.5 mph - N/A   Clear
3:35 AM 21.6 °F - 16.5 °F 81% 30.10 in 10.0 mi Calm Calm - N/A   Clear
3:55 AM 23.7 °F - 16.2 °F 73% 30.09 in 10.0 mi Calm Calm - N/A   Clear
4:15 AM 22.1 °F - 16.9 °F 80% 30.09 in 10.0 mi Calm Calm - N/A   Clear
4:35 AM 24.1 °F - 16.3 °F 72% 30.08 in 10.0 mi Calm Calm - N/A   Clear
4:55 AM 22.5 °F - 17.2 °F 80% 30.07 in 10.0 mi Calm Calm - N/A   Clear
5:15 AM 24.4 °F - 16.9 °F 73% 30.07 in 10.0 mi Calm Calm - N/A   Clear
5:35 AM 24.6 °F - 16.9 °F 72% 30.07 in 10.0 mi Calm Calm - N/A   Clear
6:55 AM 26.6 °F 21.2 °F 19.4 °F 74% 30.08 in 10.0 mi West 4.6 mph - N/A   Clear
7:55 AM 28.4 °F 23.3 °F 19.4 °F 69% 30.10 in 10.0 mi NW 4.6 mph - N/A   Clear
8:55 AM 37.4 °F 34.9 °F 21.2 °F 52% 30.11 in 10.0 mi North 3.5 mph - N/A   Clear
9:55 AM 44.6 °F - 23.0 °F 43% 30.13 in 10.0 mi Calm Calm - N/A   Clear
10:55 AM 55.4 °F - 28.4 °F 36% 30.12 in 10.0 mi NNW 6.9 mph - N/A   Clear
11:55 AM 60.8 °F - 32.0 °F 34% 30.10 in 10.0 mi NNW 6.9 mph - N/A   Clear
12:55 PM 66.2 °F - 35.6 °F 32% 30.06 in 10.0 mi NW 6.9 mph - N/A   Clear
1:55 PM 68.0 °F - 35.6 °F 30% 30.03 in 10.0 mi North 13.8 mph - N/A   Clear
2:55 PM 69.8 °F - 35.6 °F 28% 30.02 in 10.0 mi North - - N/A   Clear
3:55 PM 68.0 °F - 35.6 °F 30% 30.01 in 10.0 mi NNW 4.6 mph - N/A   Clear
10:35 PM 36.3 °F - 31.6 °F 83% 29.98 in 10.0 mi Calm Calm - N/A   Clear
10:55 PM 36.7 °F - 31.8 °F 83% 29.97 in 10.0 mi Calm Calm - N/A   Clear
11:15 PM 35.8 °F - 32.2 °F 87% 29.97 in 10.0 mi Calm Calm - N/A   Clear
11:35 PM 34.7 °F - 32.2 °F 91% 29.96 in 10.0 mi Calm Calm - N/A   Clear
11:55 PM 35.6 °F - 32.0 °F 87% 29.95 in 10.0 mi Calm Calm - N/A   Clear